Weather in Kotochigi

Russia / Tyumen Oblast     56°48′54″N   70°56′23″E
temp.,
°C
wind,
m/s
gust,
m/s
humid.,
%
clouds,
%
prec.,
mm/h
press.,
hPa
HPBL,
m
10 may, mon
mon1023:00+12ene51248100 0.0 1021547
02:00+10ene41251100 0.0 1022473
05:00+8ene41058100 0.0 1024374
08:00+11e5947100 0.0 1025791
11:00+15ene6835100 0.0 10251481
14:00+17ene57295 0.0 10251815
17:00+18ene46280 0.0 10242048
20:00+13ne33490 0.0 102542
11 may, tue
tue1123:00+10ene22530 0.0 102627
02:00+9nne22600 0.0 102616
05:00+8ne23710 0.0 102751
08:00+13ne34520 0.0 1027461
11:00+17nne34380 0.0 10271413
14:00+20n34280 0.0 10261711
17:00+20nnw34274 0.0 10251927
20:00+16wnw1142100 0.0 102511
12 may, wed
wed1223:00+13wsw1246100 0.0 102510
02:00+12w224933 0.0 102425
05:00+12w2651100 0.0 1024120
08:00+17wnw584297 0.0 1023551
11:00+19nnw7946100 0.0 10231728
14:00+19nnw683291 0.0 10231782
17:00+17nnw5837100 0.0 10241856
20:00+13n3551100 0.0 102468
13 may, thu
thu1323:00+13nne1250100 0.0 102423
02:00+12n0051100 0.0 102410
05:00+11e1152100 0.0 102424
08:00+14nw245248 0.0 1024550
11:00+17nw455259 0.0 10241190
14:00+18wnw565799 0.1 10221453
17:00+19nw585879 0.4 10211132
20:00+17nw41069100 0.3 1022495
14 may, fri
fri1423:00+14nnw4117860 0.4 1023397
02:00+11n388410 0.0 1024262
05:00+8nne37885 0.0 1026275
08:00+12nne34585 0.0 1027686
11:00+16nnw34371 0.0 10261110
14:00+19nw24385 0.0 10251296
17:00+21w47425 0.0 10231751
20:00+18ssw4859100 0.0 1020129